sat.trackr.live / text

‹ back to catalog

STARLINK-11196 [DTC]

NORAD 60408 · 2024-141L

PAYLOAD ACTIVE UNKNOWN

§ Identity

Operator
Country
US
Launch date
2024-08-10
Launch site
AFETR
Launch vehicle
Mass (kg)
RCS (m²)

Purposes: comms

External: N2YO · Heavens-Above · Gunter

§ Orbital elements

Epoch: 2026-05-25T04:01:13.960416Z

Period
91.74 min
Inclination
53.1593°
Eccentricity
0.0001279
Mean motion
15.69717371 rev/d
Perigee alt
358.8 km
Apogee alt
360.6 km
Semi-major
6,737.8 km
B*
6.6427e-6
RAAN
69.3221°
Arg perigee
88.2521°
Mean anomaly
271.8644°
Rev number
10,375

§ Raw data

STARLINK-11196 [DTC]1 60408U 24141L   26145.16752269  .00000216  00000+0  66427-5 0  99942 60408  53.1593  69.3221 0001279  88.2521 271.8644 15.69717371103759

JSON: /api/v1/satellites/60408 · /tle

For live sub-satellite position, see the globe view (requires WebGL).

§ Visibility from observer

Set your observer location to see the next 7 days of passes ≥ 10°. The values pass through the URL so the page stays shareable.

No JS? Fill the form by hand. The geolocation button needs JavaScript.